Voltar ao catálogo

CZ-6A DEB

AtivoSSO
NORAD 54604·DEBRIS·🇨🇳 China

Lançado Nov 11, 2022 de Taiyuan Satellite Launch Center

Loading…

Próximas Passagens (próximas 24 horas)

TLE

AtualizadoSource: Space-Track

Época: Sep 14, 2026, 10:41 UTC

1 54604U 22151NE  26257.44540767  .00000236  00000-0  15585-3 0  9997
2 54604  98.8587 257.9607 0050062  99.6937 260.9893 14.10183032196846

Acompanhe CZ-6A DEB em tempo real com AllMySat

Download on the App Store